#datetime,building,power
2021-10-23T00:00:00,mbh,322.00
2021-10-23T00:05:00,mbh,294.00
2021-10-23T00:10:00,mbh,304.00
2021-10-23T00:15:00,mbh,306.00
2021-10-23T00:20:00,mbh,291.00
2021-10-23T00:25:00,mbh,294.00
2021-10-23T00:30:00,mbh,279.00
2021-10-23T00:35:00,mbh,303.00
2021-10-23T00:40:00,mbh,291.00
2021-10-23T00:45:00,mbh,291.00
2021-10-23T00:50:00,mbh,293.00
2021-10-23T00:55:00,mbh,291.00
2021-10-23T01:00:00,mbh,285.00
2021-10-23T01:05:00,mbh,285.00
2021-10-23T01:10:00,mbh,297.00
2021-10-23T01:15:00,mbh,291.00
2021-10-23T01:20:00,mbh,279.00
2021-10-23T01:25:00,mbh,290.00
2021-10-23T01:30:00,mbh,288.00
2021-10-23T01:35:00,mbh,290.00
2021-10-23T01:40:00,mbh,295.00
2021-10-23T01:45:00,mbh,281.00
2021-10-23T01:50:00,mbh,283.00
2021-10-23T01:55:00,mbh,290.00
2021-10-23T02:00:00,mbh,289.00
2021-10-23T02:05:00,mbh,290.00
2021-10-23T02:10:00,mbh,300.00
2021-10-23T02:15:00,mbh,315.00
2021-10-23T02:20:00,mbh,295.00
2021-10-23T02:25:00,mbh,339.00
2021-10-23T02:30:00,mbh,349.00
2021-10-23T02:35:00,mbh,342.00
2021-10-23T02:40:00,mbh,336.00
2021-10-23T02:45:00,mbh,341.00
2021-10-23T02:50:00,mbh,337.00
2021-10-23T02:55:00,mbh,337.00
2021-10-23T03:00:00,mbh,340.00
2021-10-23T03:05:00,mbh,340.00
2021-10-23T03:10:00,mbh,312.00
2021-10-23T03:15:00,mbh,341.00
2021-10-23T03:20:00,mbh,355.00
2021-10-23T03:25:00,mbh,348.00
2021-10-23T03:30:00,mbh,297.00
2021-10-23T03:35:00,mbh,287.00
2021-10-23T03:40:00,mbh,293.00
2021-10-23T03:45:00,mbh,293.00
2021-10-23T03:50:00,mbh,286.00
2021-10-23T03:55:00,mbh,297.00
2021-10-23T04:00:00,mbh,288.00
2021-10-23T04:05:00,mbh,285.00
2021-10-23T04:10:00,mbh,285.00
2021-10-23T04:15:00,mbh,286.00
2021-10-23T04:20:00,mbh,281.00
2021-10-23T04:25:00,mbh,279.00
2021-10-23T04:30:00,mbh,280.00
2021-10-23T04:35:00,mbh,289.00
2021-10-23T04:40:00,mbh,290.00
2021-10-23T04:45:00,mbh,300.00
2021-10-23T04:50:00,mbh,279.00
2021-10-23T04:55:00,mbh,283.00
2021-10-23T05:00:00,mbh,285.00
2021-10-23T05:05:00,mbh,288.00
2021-10-23T05:10:00,mbh,292.00
2021-10-23T05:15:00,mbh,296.00
2021-10-23T05:20:00,mbh,287.00
2021-10-23T05:25:00,mbh,290.00
2021-10-23T05:30:00,mbh,296.00
2021-10-23T05:35:00,mbh,287.00
2021-10-23T05:40:00,mbh,286.00
2021-10-23T05:45:00,mbh,295.00
2021-10-23T05:50:00,mbh,290.00
2021-10-23T05:55:00,mbh,295.00
2021-10-23T06:00:00,mbh,307.00
2021-10-23T06:05:00,mbh,298.00
2021-10-23T06:10:00,mbh,288.00
2021-10-23T06:15:00,mbh,296.00
2021-10-23T06:20:00,mbh,298.00
2021-10-23T06:25:00,mbh,296.00
2021-10-23T06:30:00,mbh,299.00
2021-10-23T06:35:00,mbh,293.00
2021-10-23T06:40:00,mbh,289.00
2021-10-23T06:45:00,mbh,294.00
2021-10-23T06:50:00,mbh,292.00
2021-10-23T06:55:00,mbh,285.00
2021-10-23T07:00:00,mbh,296.00
2021-10-23T07:05:00,mbh,351.00
2021-10-23T07:10:00,mbh,359.00
2021-10-23T07:15:00,mbh,367.00
2021-10-23T07:20:00,mbh,358.00
2021-10-23T07:25:00,mbh,368.00
2021-10-23T07:30:00,mbh,364.00
2021-10-23T07:35:00,mbh,383.00
2021-10-23T07:40:00,mbh,380.00
2021-10-23T07:45:00,mbh,385.00
2021-10-23T07:50:00,mbh,387.00
2021-10-23T07:55:00,mbh,387.00
2021-10-23T08:00:00,mbh,394.00
2021-10-23T08:05:00,mbh,429.00
2021-10-23T08:10:00,mbh,384.00
2021-10-23T08:15:00,mbh,399.00
2021-10-23T08:20:00,mbh,416.00
2021-10-23T08:25:00,mbh,432.00
2021-10-23T08:30:00,mbh,446.00
2021-10-23T08:35:00,mbh,451.00
2021-10-23T08:40:00,mbh,443.00
2021-10-23T08:45:00,mbh,447.00
2021-10-23T08:50:00,mbh,441.00
2021-10-23T08:55:00,mbh,436.00
2021-10-23T09:00:00,mbh,450.00
2021-10-23T09:05:00,mbh,447.00
2021-10-23T09:10:00,mbh,440.00
2021-10-23T09:15:00,mbh,448.00
2021-10-23T09:20:00,mbh,440.00
2021-10-23T09:25:00,mbh,449.00
2021-10-23T09:30:00,mbh,442.00
2021-10-23T09:35:00,mbh,445.00
2021-10-23T09:40:00,mbh,441.00
2021-10-23T09:45:00,mbh,452.00
2021-10-23T09:50:00,mbh,448.00
2021-10-23T09:55:00,mbh,452.00
2021-10-23T10:00:00,mbh,450.00
2021-10-23T10:05:00,mbh,450.00
2021-10-23T10:10:00,mbh,451.00
2021-10-23T10:15:00,mbh,453.00
2021-10-23T10:20:00,mbh,457.00
2021-10-23T10:25:00,mbh,450.00
2021-10-23T10:30:00,mbh,450.00
2021-10-23T10:35:00,mbh,451.00
2021-10-23T10:40:00,mbh,462.00
2021-10-23T10:45:00,mbh,457.00
2021-10-23T10:50:00,mbh,449.00
2021-10-23T10:55:00,mbh,445.00
2021-10-23T11:00:00,mbh,470.00
2021-10-23T11:05:00,mbh,450.00
2021-10-23T11:10:00,mbh,447.00
2021-10-23T11:15:00,mbh,463.00
2021-10-23T11:20:00,mbh,456.00
2021-10-23T11:25:00,mbh,455.00
2021-10-23T11:30:00,mbh,488.00
2021-10-23T11:35:00,mbh,464.00
2021-10-23T11:40:00,mbh,464.00
2021-10-23T11:45:00,mbh,458.00
2021-10-23T11:50:00,mbh,456.00
2021-10-23T11:55:00,mbh,435.00
2021-10-23T12:00:00,mbh,448.00
2021-10-23T12:05:00,mbh,461.00
2021-10-23T12:10:00,mbh,458.00
2021-10-23T12:15:00,mbh,462.00
2021-10-23T12:20:00,mbh,466.00
2021-10-23T12:25:00,mbh,456.00
2021-10-23T12:30:00,mbh,455.00
2021-10-23T12:35:00,mbh,462.00
2021-10-23T12:40:00,mbh,467.00
2021-10-23T12:45:00,mbh,445.00
2021-10-23T12:50:00,mbh,452.00
2021-10-23T12:55:00,mbh,452.00
2021-10-23T13:00:00,mbh,451.00
2021-10-23T13:05:00,mbh,458.00
2021-10-23T13:10:00,mbh,485.00
2021-10-23T13:15:00,mbh,458.00
2021-10-23T13:20:00,mbh,429.00
2021-10-23T13:25:00,mbh,452.00
2021-10-23T13:30:00,mbh,489.00
2021-10-23T13:35:00,mbh,456.00
2021-10-23T13:40:00,mbh,453.00
2021-10-23T13:45:00,mbh,462.00
2021-10-23T13:50:00,mbh,455.00
2021-10-23T13:55:00,mbh,447.00
2021-10-23T14:00:00,mbh,453.00
2021-10-23T14:05:00,mbh,471.00
2021-10-23T14:10:00,mbh,457.00
2021-10-23T14:15:00,mbh,460.00
2021-10-23T14:20:00,mbh,453.00
2021-10-23T14:25:00,mbh,464.00
2021-10-23T14:30:00,mbh,447.00
2021-10-23T14:35:00,mbh,471.00
2021-10-23T14:40:00,mbh,456.00
2021-10-23T14:45:00,mbh,449.00
2021-10-23T14:50:00,mbh,448.00
2021-10-23T14:55:00,mbh,448.00
2021-10-23T15:00:00,mbh,447.00
2021-10-23T15:05:00,mbh,451.00
2021-10-23T15:10:00,mbh,463.00
2021-10-23T15:15:00,mbh,462.00
2021-10-23T15:20:00,mbh,468.00
2021-10-23T15:25:00,mbh,462.00
2021-10-23T15:30:00,mbh,457.00
2021-10-23T15:35:00,mbh,460.00
2021-10-23T15:40:00,mbh,465.00
2021-10-23T15:45:00,mbh,454.00
2021-10-23T15:50:00,mbh,458.00
2021-10-23T15:55:00,mbh,452.00
2021-10-23T16:00:00,mbh,457.00
2021-10-23T16:05:00,mbh,453.00
2021-10-23T16:10:00,mbh,460.00
2021-10-23T16:15:00,mbh,466.00
2021-10-23T16:20:00,mbh,447.00
2021-10-23T16:25:00,mbh,450.00
2021-10-23T16:30:00,mbh,467.00
2021-10-23T16:35:00,mbh,457.00
2021-10-23T16:40:00,mbh,458.00
2021-10-23T16:45:00,mbh,454.00
2021-10-23T16:50:00,mbh,464.00
2021-10-23T16:55:00,mbh,452.00
2021-10-23T17:00:00,mbh,445.00
2021-10-23T17:05:00,mbh,450.00
2021-10-23T17:10:00,mbh,452.00
2021-10-23T17:15:00,mbh,449.00
2021-10-23T17:20:00,mbh,445.00
2021-10-23T17:25:00,mbh,465.00
2021-10-23T17:30:00,mbh,450.00
2021-10-23T17:35:00,mbh,447.00
2021-10-23T17:40:00,mbh,452.00
2021-10-23T17:45:00,mbh,440.00
2021-10-23T17:50:00,mbh,446.00
2021-10-23T17:55:00,mbh,448.00
2021-10-23T18:00:00,mbh,454.00
2021-10-23T18:05:00,mbh,439.00
2021-10-23T18:10:00,mbh,446.00
2021-10-23T18:15:00,mbh,452.00
2021-10-23T18:20:00,mbh,459.00
2021-10-23T18:25:00,mbh,444.00
2021-10-23T18:30:00,mbh,444.00
2021-10-23T18:35:00,mbh,472.00
2021-10-23T18:40:00,mbh,438.00
2021-10-23T18:45:00,mbh,439.00
2021-10-23T18:50:00,mbh,438.00
2021-10-23T18:55:00,mbh,448.00
2021-10-23T19:00:00,mbh,454.00
2021-10-23T19:05:00,mbh,445.00
2021-10-23T19:10:00,mbh,457.00
2021-10-23T19:15:00,mbh,461.00
2021-10-23T19:20:00,mbh,441.00
2021-10-23T19:25:00,mbh,452.00
2021-10-23T19:30:00,mbh,457.00
2021-10-23T19:35:00,mbh,447.00
2021-10-23T19:40:00,mbh,430.00
2021-10-23T19:45:00,mbh,444.00
2021-10-23T19:50:00,mbh,453.00
2021-10-23T19:55:00,mbh,448.00
2021-10-23T20:00:00,mbh,453.00
2021-10-23T20:05:00,mbh,452.00
2021-10-23T20:10:00,mbh,471.00
2021-10-23T20:15:00,mbh,452.00
2021-10-23T20:20:00,mbh,442.00
2021-10-23T20:25:00,mbh,457.00
2021-10-23T20:30:00,mbh,446.00
2021-10-23T20:35:00,mbh,438.00
2021-10-23T20:40:00,mbh,444.00
2021-10-23T20:45:00,mbh,442.00
2021-10-23T20:50:00,mbh,446.00
2021-10-23T20:55:00,mbh,453.00
2021-10-23T21:00:00,mbh,456.00
2021-10-23T21:05:00,mbh,446.00
2021-10-23T21:10:00,mbh,454.00
2021-10-23T21:15:00,mbh,450.00
2021-10-23T21:20:00,mbh,446.00
2021-10-23T21:25:00,mbh,444.00
2021-10-23T21:30:00,mbh,450.00
2021-10-23T21:35:00,mbh,455.00
2021-10-23T21:40:00,mbh,455.00
2021-10-23T21:45:00,mbh,456.00
2021-10-23T21:50:00,mbh,460.00
2021-10-23T21:55:00,mbh,446.00
2021-10-23T22:00:00,mbh,446.00
2021-10-23T22:05:00,mbh,341.00
2021-10-23T22:10:00,mbh,347.00
2021-10-23T22:15:00,mbh,339.00
2021-10-23T22:20:00,mbh,319.00
2021-10-23T22:25:00,mbh,333.00
2021-10-23T22:30:00,mbh,318.00
2021-10-23T22:35:00,mbh,320.00
2021-10-23T22:40:00,mbh,334.00
2021-10-23T22:45:00,mbh,321.00
2021-10-23T22:50:00,mbh,326.00
2021-10-23T22:55:00,mbh,321.00
2021-10-23T23:00:00,mbh,327.00
2021-10-23T23:05:00,mbh,336.00
2021-10-23T23:10:00,mbh,332.00
2021-10-23T23:15:00,mbh,333.00
2021-10-23T23:20:00,mbh,317.00
2021-10-23T23:25:00,mbh,319.00
2021-10-23T23:30:00,mbh,327.00
2021-10-23T23:35:00,mbh,315.00
2021-10-23T23:40:00,mbh,322.00
2021-10-23T23:45:00,mbh,328.00
2021-10-23T23:50:00,mbh,319.00
2021-10-23T23:55:00,mbh,317.00
